Regional Weather Roundup
Issued by NWS

Home | Current Version | Previous Version | Graphics & Text | Print | Product List | Glossary On
Versions: 1 2 3 4 5 6 7 8 9 10 11 12 13 14 15 16 17 18 19 20 21 22 23 24 25 26 27 28 29 30 31 32 33 34 35 36 37 38 39 40 41 42 43 44 45 46 47 48 49 50
471
ASUS45 KPSR 051010
RWRAZ

ARIZONA HOURLY REGIONAL WEATHER ROUNDUP
NATIONAL WEATHER SERVICE PHOENIX AZ
300 AM MST THU MAY 05 2016

NOTE: FAIR INDICATES FEW OR NO CLOUDS BELOW 12,000 FEET WITH NO
SIGNIFICANT WEATHER AND/OR OBSTRUCTIONS TO VISIBILITY.

AZZ001>003-036-051100-
NORTHWEST ARIZONA

CITY           SKY/WX    TMP DP  RH WIND       PRES   REMARKS
BULLHEAD CITY  PTCLDY    79  32  18 S8        29.74S
KINGMAN        PTCLDY    62  22  21 S12       29.87F
$$

AZZ004>008-015-016-018-051100-
NORTH CENTRAL ARIZONA

CITY           SKY/WX    TMP DP  RH WIND       PRES   REMARKS
GRAND CANYON   PTCLDY    38  30  73 CALM      30.13F
WILLIAMS       PTCLDY    45  23  42 SE8       30.18F
PRESCOTT       MOCLDY    55  28  35 SW7       30.02F
FLAGSTAFF      CLEAR     35  27  72 CALM      30.15F
PAYSON         CLEAR     57  27  30 CALM      30.08S
PAGE           PTCLDY    64  28  25 SE5       29.97S
$$

AZZ009>014-017-051100-
NORTHEAST ARIZONA

CITY           SKY/WX    TMP DP  RH WIND       PRES   REMARKS
WINSLOW        CLEAR     58  32  37 S13       30.05S
SAINT JOHNS    CLEAR     62  24  23 S14G24    30.10S
WINDOW ROCK    CLEAR     40  34  79 CALM      30.21R
SHOW LOW       CLEAR     46  25  42 CALM      30.17S
$$

AZZ023-051100-
GREATER PHOENIX AREA

CITY           SKY/WX    TMP DP  RH WIND       PRES   REMARKS
PHOENIX        CLEAR     76  32  20 E6        29.81F
BUCKEYE        MOCLDY    68  28  22 E3        29.82F
LUKE AFB       PTCLDY    71  34  26 VRB1      29.80F
DEER VALLEY    PTCLDY    69  27  20 E5        29.83S
SCOTTSDALE     CLEAR     71  32  23 CALM      29.85S
MESA-GATEWAY   CLEAR     66  32  28 E6        29.84F
$$

AZZ027-028-051100-
SOUTHWEST MARICOPA COUNTY AND PINAL COUNTY

CITY           SKY/WX    TMP DP  RH WIND       PRES   REMARKS
CASA GRANDE    CLEAR     66  21  18 CALM      29.85F
GILA BEND      FAIR      70  19  14 SE8       29.80S
$$

AZZ503-504-507>509-051100-
SOUTHEAST ARIZONA

CITY           SKY/WX    TMP DP  RH WIND       PRES   REMARKS
TUCSON         CLEAR     66  31  27 SW3       29.93F
DAVIS-MONTHAN  CLEAR     66  32  28 S5        29.91F
NOGALES        CLEAR     59  30  33 S3        29.99F
SIERRA VISTA   CLEAR     60  27  27 S3        30.04F
DOUGLAS        CLEAR     69  24  18 E13       30.00F
SAFFORD        CLEAR     72  23  16 E12       29.96S
$$

AZZ020-021-025-026-031-051100-
SOUTHWEST ARIZONA

CITY           SKY/WX    TMP DP  RH WIND       PRES   REMARKS
YUMA           MOCLDY    73  50  44 SE17      29.72S
$$

CAZ031-033-041-043-047-048-061-051100-
SOUTHERN CALIFORNIA

CITY           SKY/WX    TMP DP  RH WIND       PRES   REMARKS
DOWNTOWN L.A.  CLOUDY    59  53  80 CALM      29.90F
L.A. AIRPORT   MOCLDY    59  53  80 W6        29.91F
SAN DIEGO      CLOUDY    62  52  69 W6        29.94R
BURBANK        CLOUDY    57  49  74 CALM      29.90F
ONTARIO        CLOUDY    57  50  77 W8        29.91S
RIVERSIDE      CLOUDY    58  50  75 W7        29.91F
PALM SPRINGS   CLEAR     70  45  40 NW10      29.73R
EL CENTRO NAS  CLEAR    N/A N/A N/A W20       29.73R
IMPERIAL       CLEAR     70  47  43 W13       29.71R
BLYTHE         MOCLDY    76  38  25 S8        29.73S
NEEDLES        MOCLDY    77  34  21 SE5       29.73F
$$

NVZ020-UTZ003-051100-
SOUTHERN NEVADA-UTAH

CITY           SKY/WX    TMP DP  RH WIND       PRES   REMARKS
LAS VEGAS      MOCLDY    73  32  22 S5        29.72S
SALT LAKE CITY CLOUDY    66  34  30 SE9       29.92F
$$

NMZ009-TXZ055-051100-
NEW MEXICO-WEST TEXAS

CITY           SKY/WX    TMP DP  RH WIND       PRES   REMARKS
ALBUQUERQUE    CLEAR     57  24  28 N7        30.19R
EL PASO        PTCLDY    66  20  17 NE3       30.10F
$$


........................KEY........................
SKY/WX - SKY CONDITION/WEATHER
TMP    - TEMPERATURE IN FAHRENHEIT
DP     - DEW POINT IN FAHRENHEIT
RH     - RELATIVE HUMIDITY IN PERCENT
WIND   - DIRECTION AND SPEED IN MILES PER HOUR (MPH)
VRB    - VARIABLE WIND DIRECTION
PRES   - MEAN SEA LEVEL PRESSURE IN INCHES OF MERCURY
         F - FALLING PRESSURE   R - RISING PRESSURE
         S - STEADY PRESSURE
VSB    - VISIBILITY IN MILES
HX     - HEAT INDEX IN FAHRENHEIT
WCI    - WIND CHILL INDEX IN FAHRENHEIT
TC     - TEMPERATURE IN CELSIUS WHICH IS ALSO KNOWN AS
         TEMPERATURE IN CENTIGRADE
AFB    - AIR FORCE BASE
         LUKE AFB IS LUKE AIR FORCE BASE
         DAVIS-MONTHAN IS DAVIS-MONTHAN AIR FORCE BASE
NAS    - NAVAL AIR STATION
         EL CENTRO NAS IS EL CENTRO NAVAL AIR STATION
N/A    - NOT AVAILABLE





USA.gov is the U.S. government's official web portal to all federal, state and local government web resources and services.